GEESAT 2-02

Satellite information

Favourite Embed

Satellite Type and Status

PAYLOADIN ORBIT

Key statistics

Satellite GEESAT 2-02 at a glance.

Uptime

683

Days in orbit

Revolutions

≈ 14.8

Per day

Orbit

LEO

Low Earth Orbit

Inclination

50.0

Latest

Satellite identification and parameters

Extended collection of information and parameters for GEESAT 2-02.

Object identification

Identified? True

Debris? False

Object name: GEESAT 2-02

International designator: 2024-023B

Object number (NORAD): 58906

Object ID (CCSDS): 58906

Country: PEOPLES REPUBLIC OF CHINA (PRC)

Current information (Y/N): Y

RCS size: MEDIUM

Orbital parameters

Period: 97.129 minutes

Inclination: 49.9969 deg

SMA: 6999.391 km

Apoapsis: 631.817 km

Periapsis: 610.695 km

RAAN: 122.6288 deg

Eccentricy: 0.00150884

Argument of periapsis: 17.1535 deg

Mean anomaly: 342.991 deg

Mean motion: 14.82560302 rev/day

Mean motion (dot): 0.0000175 rev/day2

B* drag term: 0.00024285018 1/REarth

Two-line elements (TLE)

Creation date: Dec. 16, 2025, 2:19 a.m.

Reference frame: TEME

Reference center: EARTH

Epoch: Dec. 15, 2025, 9:40 p.m. UTC

TLE line 0: 0 GEESAT 2-02

TLE line 1: 1 58906U 24023B 25349.90309090 .00001750 00000-0 24285-3 0 9999

TLE line 2: 2 58906 49.9969 122.6288 0015088 17.1535 342.9910 14.82560302101718

Live tracking on map

Real-time ground track for satellite GEESAT 2-02.

In-orbit conjunctions

There are no conjunctions computed for GEESAT 2-02, at the moment. Check back to stay up to date, as we update our databases every day.

Go to all conjunctions

Associated space launch

11 LEO communications satellites for Chinese car manufacturer Geely Automotive for testing autonomous driving/inter-vehicle communication services. They also carry payloads for ocean observation.

GEESAT 2-02 was lifted into orbit during the mission ‘Long March 2C | Geely Constellation Group 02’, on board a Long March 2 space rocket.

The launch took place on Feb. 2, 2024, 11:37 p.m. from Launch Complex 3 (LC-3/LA-1).

For more information about the launch, click the button.

Launch to space Long March 2C | Geely Constellation Group 02
Long March 2C | Geely Constellation Group 02

Agency: N/A

Status: Launch Successful

Launch date: Feb. 2, 2024, 11:37 p.m. UTC

Rocket: Long March 2

Launch pad: Launch Complex 3 (LC-3/LA-1)

Location: Xichang Satellite Launch Center, People's Republic of China

...

Latest news about this satellite

News about space launch
China launches 20 satellites on separate inland and sea rocket launches

A pair of Chinese rockets launched 11 mobility services satellites for an automaker and nine further, diverse satellites into orbit late Friday.


Newsletter sign-up

Weekly statistics, charts and insights to help you stay on top of the space industry.